Location: Amsterdam
(30.7274°N, 84.4357°W)
Time: 18:58:58
(UTC+00:00)

Altair - Pass Details

Date: 13 August 2024
Orbit: 1501 x 1682 km, 47.2° (Epoch: 07 September)

Event Time Altitude Azimuth Distance (km) Brightness Sun altitude
Rises 15:06:52 0° 211° (SSW) 4,920 10.1 50.8°
Reaches altitude 10° 15:10:09 10° 206° (SSW) 3,928 9.7 51.5°
Maximum altitude 15:19:51 54° 133° (SE) 1,944 10.2 53.5°
Drops below altitude 10° 15:29:19 10° 59° (ENE) 3,840 10.1 55.4°
Sets 15:32:27 0° 55° (NE) 4,804 10.4 56.0°
